Location: W�rzburg
(49.7529°N, 9.8822°E)
Time: 12:21:05
(UTC+02:00)

ISS - Pass Details

Date: 04 January 2018
Orbit: 402 x 408 km, 51.6° (Epoch: 20 July)

Event Time Altitude Azimuth Distance (km) Brightness Sun altitude
Exits shadow 05:29:30 27° 75° (ENE) 844 -1.7 -26.0°
Drops below altitude 10° 05:31:11 10° 73° (ENE) 1,502 -0.1 -25.7°
Enters shadow 06:27:04 -69° 261° (W) 12,350 3.6 -16.9°
Maximum altitude 07:04:36 60° 0° (N) 485 -3.6 -11.1°
